Location: Ribbesford
(52.3667°N, 2.3167°W)
Time: 06:00:42
(UTC+00:00)

Daily predictions for brighter satellites

Satellite Brightness Start Highest point End
(mag) Time Altitude Azimuth Time Altitude Azimuth Time Altitude Azimuth
ATLAS 2AS CENTAUR R/B 3.3 16:24:19 10° WSW 16:32:21 70° NW 16:40:17 10° NE
SeaSat 1 4.4 16:35:11 10° NNE 16:36:10 11° NNE 16:37:09 10° N
IRS-1C Rocket 4.4 16:31:29 10° SE 16:36:26 43° ENE 16:41:24 10° N
Cosmos 2369 Rocket 3.4 16:32:15 10° NNW 16:36:34 22° NNE 16:40:53 10° E
Cosmos 1536 3.4 16:32:59 10° N 16:36:45 36° ENE 16:40:28 10° SE
Cosmos 1980 Rocket 4.2 16:33:37 10° WNW 16:37:11 17° NNW 16:40:45 10° NNE
ISS -0.6 16:35:44 10° WSW 16:37:52 16° SW 16:39:58 10° S
Cosmos 2228 Rocket 4.4 16:34:38 10° SW 16:38:58 41° WNW 16:43:21 10° N
Cosmos 1908 Rocket 4.3 16:36:20 10° N 16:40:18 31° ENE 16:44:11 10° SE
Cosmos 1743 4.3 16:41:26 10° NNE 16:43:51 16° ENE 16:46:17 10° ESE
Cosmos 2279 Rocket 4.2 16:38:29 10° NNW 16:44:47 80° W 16:51:02 10° S
Lacrosse 5 rocket 1.5 16:41:55 10° SW 16:46:12 71° SSE 16:50:16 10° ENE
SL-16 R/B 3.6 16:43:17 10° SE 16:47:08 19° E 16:51:00 10° ENE
H-2A R/B 3.9 16:46:24 10° N 16:49:48 26° WNW 16:53:12 10° WSW
Cosmos 2344 4.4 16:42:22 10° WNW 16:50:26 47° NNE 17:01:03 10° E
SL-4 R/B 1.9 16:47:33 10° WSW 16:51:13 75° S 16:55:12 10° E
CORIOLIS 4.5 16:46:52 10° SE 16:52:01 46° ENE 16:57:12 10° N
Cosmos 1689 Rocket 2.1 16:49:06 10° NNE 16:52:09 71° ESE 16:55:09 10° S
Okean-O 3.5 16:48:26 10° ESE 16:52:14 29° ENE 16:56:03 10° N
STARLINK-60 4.5 16:50:20 10° SSW 16:53:17 28° SSE 16:56:15 10° E
Cosmos 2237 Rocket 2.6 16:49:27 10° S 16:54:54 49° ESE 17:00:22 10° NE
Meteor 2-6 Rocket 4.1 16:49:33 10° S 16:54:57 86° E 17:00:28 10° NNE
BREEZE-M R/B 3.7 16:48:50 10° W 16:55:55 66° S 16:59:27 10° E
SL-16 R/B 4.3 16:52:16 10° N 16:57:05 25° NW 17:01:54 10° WSW
YAOGAN 1 4.1 16:54:48 10° E 16:57:19 15° NE 16:59:52 10° NNE
USA 215 3.8 16:51:56 10° ENE 16:58:14 48° SE 17:04:31 10° SSW
Cosmos 2322 Rocket 3.9 16:54:10 10° W 16:58:44 25° NW 17:03:21 10° NNE
Cosmos 1812 2.8 16:55:50 10° S 16:59:38 57° E 17:03:27 10° NNE
Cosmos 2333 Rocket 2.5 16:55:06 10° SW 17:00:51 73° WNW 17:06:40 10° NNE
Cosmos 1733 Rocket 3.2 16:56:44 10° NNW 17:01:08 78° W 17:05:32 10° S
Cosmos 1500 3.2 16:57:29 10° NNW 17:01:16 83° W 17:05:00 10° S
Aureole 1 Rocket 3.7 16:59:20 10° SSE 17:01:43 21° E 17:03:34 14° ENE
Cosmos 1782 4.3 16:58:58 10° SW 17:02:41 37° WNW 17:06:24 10° N
Cosmos 2219 Rocket 2.4 16:57:17 10° SW 17:02:53 71° WNW 17:08:35 10° NNE
Cosmos 1943 Rocket 2.9 16:58:24 10° NNW 17:03:25 31° NE 17:08:23 10° ESE
SJ-7 4.5 16:59:30 10° SSE 17:03:40 86° WSW 17:07:48 10° NNW
COBE Rocket 4.4 16:59:39 10° NNE 17:03:56 35° E 17:08:15 10° SSE
Nadezhda 4 Rocket 4.1 17:01:59 10° S 17:08:12 62° E 17:14:25 10° NNE
SL-16 R/B 4.0 17:05:15 10° W 17:09:28 21° NNW 17:13:44 10° NNE
Radarsat Rocket 4.4 17:03:49 10° S 17:09:46 67° WSW 17:15:35 10° NNW
Cosmos 921 Rocket 3.2 17:05:40 10° NNW 17:09:50 49° ENE 17:14:03 10° SE
CZ-4 R/B 2.5 17:11:57 10° ESE 17:14:54 21° ENE 17:17:51 10° NNE
Cosmos 1315 Rocket 4.4 17:12:16 10° SW 17:15:59 34° WNW 17:19:45 10° N
CZ-4B R/B 3.1 17:15:05 10° N 17:18:19 34° WNW 17:21:28 10° SW
AQUARIUS 4.1 17:17:56 10° SSE 17:22:26 77° ENE 17:26:57 10° NNW
CSL-04 Rocket 4.4 17:18:14 10° ESE 17:22:44 29° ENE 17:27:17 10° N
NOSS 0 Rocket 4.0 17:18:20 10° SSW 17:24:34 87° ESE 17:30:39 11° NNE
Lacrosse 4 Rocket 3.3 17:23:41 10° N 17:25:47 13° NNE 17:26:19 13° NNE
Cosmos 1980 3.7 17:21:02 10° SSW 17:26:41 83° ESE 17:32:01 12° NNE
BREEZE-M DEB (TANK) 3.8 17:22:09 10° WSW 17:27:13 35° S 17:29:56 11° ESE
Cosmos 1441 Rocket 3.1 17:24:50 10° N 17:28:40 63° ENE 17:32:23 10° SSE
Cosmos 2026 Rocket 4.2 17:24:02 10° SSE 17:29:40 43° E 17:35:22 10° NNE
Cosmos 1975 3.6 17:26:25 10° N 17:29:55 28° ENE 17:33:25 10° SE
NOSS 3-1 (C) 4.1 17:23:40 10° NW 17:30:29 51° NNE 17:38:00 11° ESE
SMAP 3.2 17:27:58 10° SSE 17:32:38 81° WSW 17:37:20 10° NNW
H-2A R/B 2.7 17:29:03 10° SSE 17:32:44 84° WSW 17:36:28 10° NNW
Cosmos 2251 Rocket 3.7 17:28:11 10° SSW 17:33:28 74° WNW 17:38:47 10° NNE
Envisat 3.0 17:28:46 10° SSE 17:33:46 61° ENE 17:38:48 10° N
Cosmos 2297 3.7 17:28:25 10° NNW 17:34:10 87° WSW 17:39:50 10° SSE
USA 267 3.7 17:28:21 10° SE 17:34:51 64° SW 17:41:22 10° WNW
Cosmos 1782 Rocket 3.5 17:31:13 10° N 17:35:33 59° ENE 17:39:50 10° SSE
STARLINK-67 2.4 17:36:08 10° W 17:38:56 86° N 17:39:49 39° E
PSLV R/B 4.0 17:36:29 10° NNE 17:40:40 81° WNW 17:44:46 10° SSW
USA 229 DEB 4.0 17:34:00 10° NW 17:40:57 55° NNE 17:47:13 15° ESE
USA 229 4.0 17:34:05 10° NW 17:41:02 55° NNE 17:47:15 15° ESE
Cosmos 407 Rocket 3.9 17:37:40 10° S 17:42:31 41° ESE 17:45:31 22° NE
Exosat Rocket 3.7 17:37:49 10° SW 17:42:53 73° WNW 17:47:39 13° NNE
Meteor 1-27 Rocket 4.0 17:39:04 10° SSW 17:44:51 73° WNW 17:50:47 10° N
Cosmos 1666 3.1 17:41:32 10° NNW 17:45:15 63° W 17:48:56 10° S
NOSS 3-4 (A) 4.3 17:40:09 10° W 17:46:02 43° NNW 17:50:44 18° NE
NOSS 3-4 (C) 4.3 17:40:15 10° W 17:46:09 44° NNW 17:50:50 18° NE
NOSS 3-1 (A) 4.2 17:39:30 10° NW 17:46:13 48° NNE 17:51:32 20° E
Cosmos 1862 Rocket 4.3 17:42:13 10° SSW 17:46:31 54° WNW 17:50:53 10° N
Okean 2 Rocket 3.5 17:43:02 10° N 17:47:15 38° ENE 17:51:28 10° SE
NOAA 12 4.1 17:42:12 10° SSE 17:47:30 89° ENE 17:52:49 10° NNW
STARLINK-46 2.3 17:46:48 10° W 17:49:26 74° N 17:49:40 66° NE
Cosmos 1703 Rocket 3.5 17:45:39 10° S 17:50:05 68° E 17:54:16 12° NNE
Sich 1 Rocket 3.5 17:46:35 10° N 17:50:59 64° ENE 17:55:20 10° SSE
COSMOS 2428 3.9 17:48:46 10° WSW 17:54:02 38° NW 17:59:05 11° NNE
Cosmos 2221 Rocket 4.3 17:50:10 10° SSE 17:54:04 31° E 17:54:05 31° E
FALCON 9 DEB 3.4 17:55:48 10° SW 17:59:14 55° SSE 17:59:57 45° ESE
Meteor 2-9 Rocket 4.3 17:55:28 10° N 18:01:17 57° ENE 18:06:59 10° SSE
Cosmos 1627 Rocket 4.3 17:58:52 10° S 18:04:58 78° E 18:11:09 10° NNE
RESURS DK-1 4.3 18:02:36 10° W 18:06:00 24° NW 18:08:39 14° N
YAOGAN 6 2.4 18:03:24 10° SSE 18:06:58 82° ENE 18:10:36 10° NNW
Cosmos 2195 Rocket 4.4 18:00:59 10° S 18:07:14 87° E 18:13:36 10° N
NOAA 11 4.3 18:03:39 10° SE 18:08:54 50° ENE 18:14:12 10° N
SeaSat 1 3.7 18:12:55 25° NNE 18:12:55 25° NNE 18:16:19 10° NNW
Meteor 1-18 Rocket 4.1 18:08:37 10° S 18:14:14 65° E 18:18:30 17° NNE
Cosmos 2360 Rocket 4.3 18:11:06 10° WNW 18:14:54 18° NNW 18:18:37 10° NNE
Cosmos 1867 4.1 18:10:36 10° NW 18:16:00 61° SW 18:21:21 10° SSE
Ariane Rocket 3.7 18:18:02 33° NE 18:18:02 33° NE 18:21:38 10° N
CZ-4 R/B 4.4 18:12:57 10° SSE 18:17:07 89° E 18:21:20 10° NNW
Cosmos 1655 Rocket 4.1 18:12:51 10° SSE 18:18:53 50° E 18:23:34 17° NNE
Cosmos 1092 Rocket 4.3 18:12:57 10° SSW 18:19:13 69° WNW 18:25:27 10° N
Cosmos 1743 3.2 18:16:13 10° NNW 18:20:03 61° W 18:23:53 10° S
Cosmos 2369 Rocket 2.1 18:15:56 10° NNW 18:21:35 73° ENE 18:25:39 20° SE
Cosmos 1980 Rocket 4.3 18:21:47 10° NNW 18:23:47 12° N 18:24:45 11° NNE
Okean 1-7 3.3 18:19:47 10° SSW 18:24:07 68° WNW 18:27:21 18° N
ATLAS 2AS CENTAUR R/B 3.9 18:17:13 10° W 18:24:40 39° NNW 18:28:35 25° NE
COSMO-SKYMED 1 2.4 18:24:20 50° NE 18:25:21 72° ESE 18:29:41 10° S
Lacrosse 5 rocket 1.7 18:21:30 10° W 18:25:34 48° NNW 18:25:54 46° N
Cosmos 1656 Rocket 3.9 18:20:56 10° NNW 18:26:07 42° NE 18:26:10 42° NE
Cosmos 1763 Rocket 4.0 18:21:33 10° NNW 18:25:34 38° NNE 18:25:34 38° NNE
Cosmos 1300 Rocket 3.5 18:24:00 10° N 18:34:41 - SSE 18:27:53 61° NE
Okean-O 3.9 18:24:23 10° S 18:28:35 42° W 18:32:49 10° NNW
Meteor 2-13 Rocket 4.4 18:23:02 10° S 18:28:55 56° E 18:32:10 27° NNE
STARLINK-60 3.5 18:26:21 10° WSW 18:29:13 61° WSW 18:29:13 61° WSW
STARLINK-52 3.6 18:26:22 10° WSW 18:29:24 59° SSW 18:29:24 59° SSW
SL-16 R/B 2.1 18:24:48 10° SSW 18:30:30 89° WNW 18:33:05 35° NNE
SL-4 R/B 1.9 18:26:58 10° W 18:30:48 72° S 18:30:59 70° SSE
Lacrosse 5 3.6 18:27:33 10° S 18:29:45 18° SSE 18:29:45 18° SSE
YAOGAN 1 2.5 18:28:30 10° SSE 18:32:50 88° WSW 18:37:12 10° NNW
Okean 1 3.5 18:32:01 10° SSW 18:35:58 69° WNW 18:36:52 50° NNW
STARLINK-29 3.9 18:34:18 10° WSW 18:37:05 52° SW 18:37:05 52° SW
Cosmos 1603 4.5 18:32:35 10° S 18:36:35 34° SE 18:36:35 34° SE
Cosmos 1190 Rocket 3.9 18:33:45 10° SSW 18:38:57 86° WNW 18:40:41 44° NNE
Cosmos 2237 Rocket 3.3 18:33:46 10° WSW 18:39:07 40° NW 18:42:36 20° NNE
Cosmos 676 Rocket 3.8 18:36:23 10° SSW 18:41:30 66° ESE 18:41:40 65° E
USA 215 3.2 18:39:08 42° ENE 18:41:35 81° NNW 18:48:08 10° WSW
Cosmos 2322 Rocket 4.4 18:42:46 10° NNW 18:45:00 12° N 18:46:39 11° N
Aureole 1 Rocket 4.1 18:43:10 10° WSW 18:45:58 28° NW 18:46:15 28° NW
Cosmos 2333 Rocket 4.1 18:41:41 10° W 18:46:10 23° NNW 18:49:26 15° N
Cosmos 1943 Rocket 2.4 18:42:01 10° NW 18:47:39 68° WSW 18:52:55 11° SSE
Cosmos 2219 Rocket 4.1 18:43:36 10° W 18:47:53 22° NNW 18:51:01 14° N
Cosmos 1954 Rocket 3.8 18:43:09 10° SSW 18:48:10 70° ESE 18:48:10 70° ESE
Cosmos 614 Rocket 4.2 18:43:15 10° SW 18:48:18 63° WNW 18:50:06 39° N
S3M 4.0 18:43:21 10° NNW 18:49:35 81° W 18:55:43 10° S
CZ-4 R/B 2.3 18:45:59 10° S 18:49:42 45° W 18:53:26 10° NNW
SL-16 R/B 4.4 18:53:58 10° NNW 18:55:58 12° N 18:56:55 11° N
Meteor 2-4 Rocket 3.6 18:51:22 10° S 18:57:05 71° ESE 18:57:05 71° ESE
Cosmos 2151 Rocket 4.3 18:54:10 10° NNW 18:57:25 47° NNW 18:57:25 47° NNW
Cosmos 2266 Rocket 3.9 18:52:48 10° S 18:59:07 66° E 18:59:29 65° ENE
CSL-04 Rocket 4.2 18:57:38 10° S 19:02:48 56° WSW 19:08:03 10° NNW
CZ-4C R/B 3.7 18:59:35 10° S 19:01:22 21° S 19:01:22 21° S
Lacrosse 4 Rocket 3.6 19:01:35 10° NNW 19:02:38 17° NNW 19:02:38 17° NNW
Meteor 1-19 Rocket 4.3 19:00:11 10° SSW 19:05:40 71° WNW 19:07:28 43° N
Cosmos 2344 4.2 18:57:03 10° NW 19:06:16 88° NE 19:13:45 29° SE
Cosmos 1140 Rocket 3.8 19:07:31 10° SW 19:12:35 60° WNW 19:13:00 58° NW
Cosmos 468 Rocket 4.4 19:14:11 10° NNW 19:18:28 58° NW 19:18:28 58° NW
NOSS 3-1 (C) 4.2 19:14:32 10° NW 19:21:50 69° SW 19:25:29 36° SSE
USA 229 DEB 4.3 19:25:05 10° NW 19:32:08 58° SW 19:34:44 39° S
USA 229 4.3 19:25:12 10° NW 19:32:14 59° SW 19:34:46 40° S
Cosmos 2315 Rocket 4.1 19:28:04 10° NNW 19:34:03 74° WNW 19:34:03 74° WNW
NOSS 3-1 (A) 4.0 19:30:26 10° NW 19:37:45 76° SW 19:39:02 64° S
SeaSat 1 4.5 19:52:43 21° NNW 19:52:43 21° NNW 19:54:22 10° NNW
Cosmos 2369 Rocket 4.2 20:00:43 10° NW 20:05:05 24° WSW 20:07:35 18° SW
SL-16 R/B 4.0 20:10:44 10° W 20:15:00 25° NW 20:15:00 25° NW
ATLAS 2AS CENTAUR R/B 4.0 20:10:10 10° NW 20:16:01 36° NNW 20:16:01 36° NNW
USA 215 4.2 20:26:28 42° WNW 20:26:28 42° WNW 20:30:48 10° W
